Springfield-Branson National Airport Airport (SGF)

 

Airport Diagram
Current Weather/Forecast (VFR Conditions)
METAR KSGF 241552Z 26010KT 10SM CLR 28/18 A3000 RMK AO2 SLP144 T02830183 $
TAF KSGF 241120Z 2412/2512 22009KT P6SM FEW210 FM241600 25010KT P6SM FEW240 FM241800 28009KT P6SM FEW250 FM250100 VRB05KT P6SM FEW220

All Charts
General
Chart Name Download
AIRPORT DIAGRAM
TAKEOFF MINIMUMS
ALTERNATE MINIMUMS
HOT SPOT

Approaches
Chart Name Download
ILS OR LOC RWY 02
ILS OR LOC RWY 14
RNAV (GPS) RWY 02
RNAV (GPS) RWY 14
RNAV (GPS) RWY 20
RNAV (GPS) RWY 32
VOR/DME OR TACAN RWY 02
VOR OR TACAN RWY 20
HI-TACAN RWY 20